AAL1195 KMIA-KMCO

Flight info

Callsign AAL1195
Flight time 0h 36m
Altitude 20000
Route FLMGO2 WAPOM MUNGI1
Aircraft B38M/M-SDE1FGHILORVWXY/HB1

Departure

Time 2026-04-24 02:47
Airport Miami International Airport (KMIA)

Arrival

Time 2026-04-24 03:24
Airport Orlando International Airport (KMCO)
Time Latitude Longitude Altitude Speed Heading
2026-04-24 02:10 25.79787 -80.27774 17 ft 0 kts 178°
2026-04-24 02:36 25.79811 -80.27775 17 ft 4 kts 181°
2026-04-24 02:36 25.79838 -80.27773 19 ft 4 kts 187°
2026-04-24 02:36 25.79864 -80.27766 20 ft 4 kts 201°
2026-04-24 02:36 25.79885 -80.27752 20 ft 4 kts 241°
2026-04-24 02:37 25.79888 -80.27738 21 ft 1 kts 267°
2026-04-24 02:37 25.79888 -80.27736 21 ft 0 kts 267°
2026-04-24 02:40 25.79888 -80.27741 17 ft 2 kts 268°
2026-04-24 02:41 25.79886 -80.27790 17 ft 12 kts 268°
2026-04-24 02:41 25.79908 -80.27882 17 ft 14 kts 324°
2026-04-24 02:41 25.80014 -80.27904 17 ft 17 kts 337°
2026-04-24 02:41 25.80048 -80.28030 16 ft 20 kts 267°
2026-04-24 02:42 25.80041 -80.28191 17 ft 22 kts 268°
2026-04-24 02:42 25.80034 -80.28373 17 ft 25 kts 267°
2026-04-24 02:42 25.80025 -80.28574 18 ft 27 kts 267°
2026-04-24 02:42 25.80016 -80.28787 19 ft 28 kts 268°
2026-04-24 02:43 25.80006 -80.29014 18 ft 31 kts 267°
2026-04-24 02:43 25.79998 -80.29249 18 ft 28 kts 268°
2026-04-24 02:43 25.79987 -80.29473 17 ft 26 kts 267°
2026-04-24 02:43 25.79980 -80.29671 17 ft 27 kts 268°
2026-04-24 02:44 25.79972 -80.29850 16 ft 15 kts 266°
2026-04-24 02:44 25.79972 -80.29932 16 ft 0 kts 278°
2026-04-24 02:45 25.79972 -80.29933 16 ft 0 kts 278°
2026-04-24 02:45 25.79975 -80.29949 16 ft 5 kts 280°
2026-04-24 02:45 25.79988 -80.30030 16 ft 17 kts 280°
2026-04-24 02:46 25.80023 -80.30124 17 ft 12 kts 334°
2026-04-24 02:46 25.80073 -80.30098 16 ft 0 kts 84°
2026-04-24 02:46 25.80081 -80.29939 15 ft 61 kts 87°
2026-04-24 02:47 25.80111 -80.29129 20 ft 146 kts 88°
2026-04-24 02:47 25.80179 -80.27868 630 ft 171 kts 85°
2026-04-24 02:47 25.80321 -80.26527 1678 ft 182 kts 83°
2026-04-24 02:47 25.80461 -80.25031 2390 ft 211 kts 86°
2026-04-24 02:48 25.80531 -80.23317 3281 ft 226 kts 89°
2026-04-24 02:48 25.80552 -80.21505 4195 ft 245 kts 88°
2026-04-24 02:48 25.80628 -80.19553 5070 ft 262 kts 79°
2026-04-24 02:48 25.81361 -80.17698 6137 ft 266 kts 50°
2026-04-24 02:49 25.82797 -80.16412 7157 ft 272 kts 23°
2026-04-24 02:49 25.84655 -80.15948 8071 ft 279 kts 360°
2026-04-24 02:49 25.86617 -80.15886 9088 ft 286 kts 360°
2026-04-24 02:49 25.88627 -80.15796 10085 ft 292 kts 357°
2026-04-24 02:50 25.90658 -80.16163 10748 ft 303 kts 335°
2026-04-24 02:50 25.92501 -80.17370 11376 ft 316 kts 323°
2026-04-24 02:50 25.94407 -80.18741 11912 ft 334 kts 326°
2026-04-24 02:50 25.96407 -80.20143 12589 ft 345 kts 326°
2026-04-24 02:51 25.98451 -80.21564 13546 ft 347 kts 326°
2026-04-24 02:51 26.00516 -80.22999 14338 ft 353 kts 326°
2026-04-24 02:51 26.02461 -80.24355 15272 ft 358 kts 327°
2026-04-24 02:51 26.04511 -80.25783 15554 ft 362 kts 326°
2026-04-24 02:52 26.06649 -80.27272 16203 ft 366 kts 326°
2026-04-24 02:52 26.08815 -80.28774 16994 ft 367 kts 326°
2026-04-24 02:52 26.10989 -80.30285 17690 ft 372 kts 326°
2026-04-24 02:52 26.13202 -80.31825 18389 ft 376 kts 326°
2026-04-24 02:53 26.15430 -80.33377 19001 ft 380 kts 326°
2026-04-24 02:53 26.17683 -80.34948 19622 ft 384 kts 326°
2026-04-24 02:53 26.19968 -80.36542 19942 ft 389 kts 326°
2026-04-24 02:53 26.22279 -80.38154 20028 ft 399 kts 326°
2026-04-24 02:54 26.24678 -80.39827 20030 ft 414 kts 326°
2026-04-24 02:54 26.27138 -80.41542 20043 ft 419 kts 326°
2026-04-24 02:54 26.29607 -80.43267 20054 ft 420 kts 326°
2026-04-24 02:54 26.32088 -80.45003 20066 ft 421 kts 325°
2026-04-24 02:55 26.34564 -80.46736 20067 ft 421 kts 325°
2026-04-24 02:55 26.37043 -80.48472 20069 ft 420 kts 325°
2026-04-24 02:55 26.39486 -80.50185 20070 ft 420 kts 325°
2026-04-24 02:55 26.41961 -80.51920 20068 ft 420 kts 325°
2026-04-24 02:56 26.44441 -80.53659 20071 ft 421 kts 325°
2026-04-24 02:56 26.46923 -80.55401 20070 ft 422 kts 326°
2026-04-24 02:56 26.49585 -80.56773 20058 ft 425 kts 341°
2026-04-24 02:56 26.52429 -80.57701 20082 ft 426 kts 341°
2026-04-24 02:57 26.55275 -80.58626 20068 ft 426 kts 341°
2026-04-24 02:57 26.58127 -80.59539 20079 ft 426 kts 341°
2026-04-24 02:57 26.60983 -80.60447 20073 ft 426 kts 342°
2026-04-24 02:57 26.63830 -80.61352 20074 ft 426 kts 342°
2026-04-24 02:58 26.66687 -80.62260 20072 ft 426 kts 342°
2026-04-24 02:58 26.69546 -80.63170 20072 ft 426 kts 342°
2026-04-24 02:58 26.72399 -80.64078 20072 ft 426 kts 342°
2026-04-24 02:58 26.75252 -80.64986 20072 ft 426 kts 341°
2026-04-24 02:59 26.78104 -80.65895 20072 ft 426 kts 342°
2026-04-24 02:59 26.80958 -80.66805 20072 ft 426 kts 342°
2026-04-24 02:59 26.83813 -80.67715 20072 ft 426 kts 341°
2026-04-24 02:59 26.86665 -80.68625 20080 ft 426 kts 341°
2026-04-24 03:00 26.89516 -80.69535 20078 ft 425 kts 341°
2026-04-24 03:00 26.92320 -80.70550 20077 ft 424 kts 338°
2026-04-24 03:00 26.95116 -80.71621 20074 ft 425 kts 339°
2026-04-24 03:00 26.97954 -80.72695 20068 ft 435 kts 339°
2026-04-24 03:01 27.00808 -80.73769 20069 ft 440 kts 339°
2026-04-24 03:01 27.03712 -80.74861 20070 ft 441 kts 339°
2026-04-24 03:01 27.06627 -80.75958 20080 ft 442 kts 339°
2026-04-24 03:01 27.09541 -80.77056 20077 ft 442 kts 339°
2026-04-24 03:02 27.12457 -80.78155 20076 ft 442 kts 339°
2026-04-24 03:02 27.15366 -80.79252 20078 ft 442 kts 339°
2026-04-24 03:02 27.18283 -80.80353 20079 ft 442 kts 339°
2026-04-24 03:02 27.21190 -80.81451 20077 ft 441 kts 339°
2026-04-24 03:03 27.24095 -80.82548 20075 ft 440 kts 339°
2026-04-24 03:03 27.26999 -80.83645 20075 ft 440 kts 339°
2026-04-24 03:03 27.29906 -80.84745 20075 ft 440 kts 339°
2026-04-24 03:03 27.32804 -80.85841 20079 ft 440 kts 339°
2026-04-24 03:04 27.35744 -80.86835 20080 ft 441 kts 342°
2026-04-24 03:04 27.38713 -80.87711 20079 ft 441 kts 343°
2026-04-24 03:04 27.41684 -80.88572 20076 ft 441 kts 343°
2026-04-24 03:04 27.44657 -80.89444 20074 ft 441 kts 343°
2026-04-24 03:05 27.47628 -80.90317 20075 ft 441 kts 343°
2026-04-24 03:05 27.50595 -80.91191 20075 ft 441 kts 343°
2026-04-24 03:05 27.53448 -80.92034 20369 ft 442 kts 345°
2026-04-24 03:05 27.56409 -80.92908 20105 ft 437 kts 344°
2026-04-24 03:06 27.59317 -80.93763 20011 ft 433 kts 341°
2026-04-24 03:06 27.61976 -80.94552 20012 ft 430 kts 341°
2026-04-24 03:06 27.64873 -80.95412 19999 ft 431 kts 344°
2026-04-24 03:06 27.67793 -80.96277 20005 ft 436 kts 344°
2026-04-24 03:07 27.70608 -80.97109 20006 ft 436 kts 344°
2026-04-24 03:07 27.73543 -80.97977 20050 ft 435 kts 344°
2026-04-24 03:07 27.76457 -80.98841 19457 ft 432 kts 344°
2026-04-24 03:07 27.79344 -80.99698 18802 ft 428 kts 344°
2026-04-24 03:08 27.82209 -81.00548 18150 ft 424 kts 344°
2026-04-24 03:08 27.87767 -81.02199 16829 ft 419 kts 346°
2026-04-24 03:08 27.90586 -81.03037 16153 ft 417 kts 346°
2026-04-24 03:09 27.93389 -81.03915 15345 ft 418 kts 341°
2026-04-24 03:09 27.96116 -81.05079 14617 ft 415 kts 339°
2026-04-24 03:09 27.98752 -81.06198 13965 ft 405 kts 340°
2026-04-24 03:09 28.01346 -81.07281 13603 ft 388 kts 340°
2026-04-24 03:10 28.03798 -81.08298 13604 ft 363 kts 340°
2026-04-24 03:10 28.06098 -81.09249 13558 ft 342 kts 340°
2026-04-24 03:10 28.08268 -81.10158 13511 ft 322 kts 339°
2026-04-24 03:10 28.10293 -81.11054 13431 ft 305 kts 339°
2026-04-24 03:11 28.12250 -81.11917 13260 ft 298 kts 339°
2026-04-24 03:11 28.14173 -81.12764 12985 ft 297 kts 339°
2026-04-24 03:11 28.16120 -81.13621 12654 ft 302 kts 339°
2026-04-24 03:11 28.18090 -81.14488 12340 ft 305 kts 339°
2026-04-24 03:12 28.20072 -81.15361 12018 ft 306 kts 339°
2026-04-24 03:12 28.22058 -81.16235 11693 ft 306 kts 339°
2026-04-24 03:12 28.24038 -81.17107 11385 ft 305 kts 339°
2026-04-24 03:12 28.26008 -81.17975 11070 ft 303 kts 339°
2026-04-24 03:13 28.28036 -81.18533 10699 ft 300 kts 358°
2026-04-24 03:13 28.30112 -81.18568 10343 ft 294 kts 360°
2026-04-24 03:13 28.32123 -81.18611 10016 ft 284 kts 360°
2026-04-24 03:13 28.34070 -81.18651 9676 ft 275 kts 360°
2026-04-24 03:14 28.35954 -81.18688 9344 ft 267 kts 360°
2026-04-24 03:14 28.37800 -81.18723 9028 ft 265 kts
2026-04-24 03:14 28.39646 -81.18750 8697 ft 265 kts
2026-04-24 03:14 28.41495 -81.18765 8361 ft 266 kts
2026-04-24 03:15 28.43322 -81.18780 8035 ft 266 kts
2026-04-24 03:15 28.44574 -81.18791 7796 ft 267 kts
2026-04-24 03:15 28.46448 -81.18807 7345 ft 270 kts
2026-04-24 03:15 28.48338 -81.18823 6803 ft 274 kts
2026-04-24 03:16 28.50234 -81.18840 6441 ft 269 kts
2026-04-24 03:16 28.52663 -81.18861 6091 ft 259 kts
2026-04-24 03:16 28.54439 -81.18878 5838 ft 251 kts
2026-04-24 03:16 28.55607 -81.18900 5659 ft 247 kts
2026-04-24 03:17 28.57304 -81.18933 5395 ft 240 kts
2026-04-24 03:17 28.58956 -81.18964 5139 ft 237 kts
2026-04-24 03:17 28.60580 -81.18998 4884 ft 235 kts 359°
2026-04-24 03:17 28.62141 -81.19476 4601 ft 235 kts 328°
2026-04-24 03:18 28.63252 -81.20792 4322 ft 232 kts 296°
2026-04-24 03:18 28.63630 -81.22536 4074 ft 227 kts 270°
2026-04-24 03:18 28.63549 -81.24328 3832 ft 227 kts 263°
2026-04-24 03:18 28.63402 -81.26117 3587 ft 227 kts 263°
2026-04-24 03:19 28.63252 -81.27909 3333 ft 227 kts 263°
2026-04-24 03:19 28.63099 -81.29691 3092 ft 225 kts 261°
2026-04-24 03:19 28.62542 -81.31294 2978 ft 218 kts 230°
2026-04-24 03:19 28.61368 -81.32331 2976 ft 215 kts 202°
2026-04-24 03:20 28.59941 -81.32815 2996 ft 215 kts 187°
2026-04-24 03:20 28.58425 -81.32892 2760 ft 216 kts 177°
2026-04-24 03:20 28.56936 -81.32834 2472 ft 217 kts 177°
2026-04-24 03:20 28.55432 -81.32809 2214 ft 213 kts 178°
2026-04-24 03:21 28.53981 -81.32796 1901 ft 202 kts 178°
2026-04-24 03:21 28.52631 -81.32782 1643 ft 187 kts 178°
2026-04-24 03:21 28.51399 -81.32769 1423 ft 167 kts 178°
2026-04-24 03:21 28.50304 -81.32757 1217 ft 148 kts 178°
2026-04-24 03:22 28.49282 -81.32746 1012 ft 146 kts 178°
2026-04-24 03:22 28.48267 -81.32735 812 ft 146 kts 178°
2026-04-24 03:22 28.47252 -81.32725 625 ft 145 kts 178°
2026-04-24 03:22 28.46217 -81.32712 420 ft 147 kts 178°
2026-04-24 03:23 28.45205 -81.32704 244 ft 147 kts 179°
2026-04-24 03:23 28.44200 -81.32691 109 ft 136 kts 179°
2026-04-24 03:23 28.43332 -81.32680 112 ft 109 kts 178°
2026-04-24 03:23 28.42772 -81.32670 107 ft 52 kts 178°
2026-04-24 03:24 28.42576 -81.32518 108 ft 22 kts 122°
2026-04-24 03:24 28.42503 -81.32378 109 ft 19 kts 121°
2026-04-24 03:24 28.42443 -81.32258 110 ft 16 kts 118°
2026-04-24 03:24 28.42392 -81.32157 113 ft 14 kts 120°
2026-04-24 03:25 28.42346 -81.32055 112 ft 16 kts 100°
2026-04-24 03:25 28.42344 -81.31926 111 ft 18 kts 90°
2026-04-24 03:25 28.42379 -81.31835 109 ft 13 kts 12°
2026-04-24 03:25 28.42499 -81.31832 109 ft 24 kts 358°
2026-04-24 03:26 28.42704 -81.31836 109 ft 33 kts
2026-04-24 03:26 28.42895 -81.31839 105 ft 19 kts 358°
2026-04-24 03:26 28.42962 -81.31786 105 ft 11 kts 103°
2026-04-24 03:26 28.42938 -81.31703 104 ft 11 kts 99°
2026-04-24 03:27 28.42945 -81.31622 104 ft 9 kts 78°
2026-04-24 03:27 28.42953 -81.31557 104 ft 7 kts 103°
2026-04-24 03:27 28.42924 -81.31546 104 ft 4 kts 181°
2026-04-24 03:27 28.42901 -81.31549 104 ft 3 kts 189°
2026-04-24 03:28 28.42894 -81.31551 104 ft 0 kts 190°
2026-04-24 03:28 28.42892 -81.31551 104 ft 0 kts 191°